Flag for Canada Weather past 2 weeks in Iqaluit, Nunavut Territory, Canada

Now
27 °F

Partly cloudy.


Feels Like: 17 °F
Forecast: 23 / 33 °F
Wind: 9 mph from Northwest

Location: Iqaluit

Current Time: Sep 23, 2014 at 5:37:11 AM

Latest Report: Sep 23, 2014 at 5:00 AM


Visibility: 15 mi

Pressure: 29.55 "Hg

Humidity: 86%

Dew point: 23 °F

Location of IqaluitLocation

Historic Weather in Iqaluit — Graph

°F

Iqaluit temperature yesterday

Maximum temperature yesterday: 36 °F (at 12:00 PM)
Minimum temperature yesterday: 30 °F (at 11:00 PM)
Average temperature yesterday: 33 °F

Past Weeks' High & Low Weather Summary

 TemperatureHumidityPressure
High48 °F (Sep 17, 3:00 PM)100% (Sep 9, 3:00 PM)29.86 "Hg (Sep 9, 3:00 PM)
Low27 °F (Sep 12, 6:00 AM)48% (Sep 22, 1:00 PM)29.34 "Hg (Sep 10, 2:00 PM)
Average37 °F79%29.63 "Hg
* Reported Sep 8 3:00 AM — Sep 23 3:00 AM, Iqaluit, Weather by CustomWeather, © 2014

Note: Actual official high and low records may vary slightly from our data, if they occured in-between our weather recording intervals... More about our weather records

Advertising

Iqaluit weather history for previous 24 hours

 ConditionsComfort  
Time TempWeatherWind HumidityBarometerVisibility
3:00 AM
Sep 23
28 °FOvercast.6 mph86%29.55 "Hg15 mi
2:00 AM28 °FOvercast.8 mph80%29.57 "Hg15 mi
1:00 AM28 °FPassing clouds.5 mph74%29.58 "Hg15 mi
12:00 AM28 °FPassing clouds.8 mph74%29.58 "Hg15 mi
11:00 PM
Sep 22
30 °FPassing clouds.7 mph69%29.58 "Hg15 mi
10:00 PM32 °FOvercast.7 mph64%29.59 "Hg15 mi
9:00 PM32 °FOvercast.7 mph64%29.60 "Hg15 mi
8:00 PM32 °FMostly cloudy.7 mph64%29.60 "Hg15 mi
7:00 PM32 °FPassing clouds.6 mph64%29.59 "Hg30 mi
6:00 PM34 °FPartly cloudy.3 mph60%29.59 "Hg30 mi
5:00 PM34 °FPartly sunny.5 mph56%29.59 "Hg30 mi
4:00 PM34 °FPartly sunny.3 mph51%29.59 "Hg25 mi
3:00 PM36 °FPartly sunny.5 mph48%29.59 "Hg25 mi
2:00 PM34 °FPartly sunny.5 mph51%29.59 "Hg25 mi
1:00 PM36 °FScattered clouds.3 mph48%29.58 "Hg25 mi
12:00 PM36 °FScattered clouds.8 mph52%29.59 "Hg25 mi
11:00 AM34 °FBroken clouds.9 mph70%29.58 "Hg25 mi
10:00 AM34 °FLight snow. Partly sunny.12 mph75%29.58 "Hg15 mi
9:47 AM34 °FLight snow. More clouds than sun.9 mph75%29.58 "Hg15 mi
9:00 AM34 °FLight snow. Overcast.18 mph81%29.55 "Hg10 mi
8:48 AM34 °FOvercast.16 mph81%29.55 "Hg15 mi
8:00 AM34 °FLight snow. Overcast.15 mph81%29.55 "Hg5 mi
7:00 AM32 °FLight snow. Overcast.16 mph87%29.55 "Hg4 mi
6:00 AM34 °FLight snow. Overcast.16 mph75%29.55 "Hg6 mi
5:00 AM32 °FOvercast.13 mph75%29.55 "Hg15 mi
Weather by CustomWeather, © 2014

See weather overviewHow to use our weather pages